Regional Weather Roundup
Issued by NWS

Home | Current Version | Previous Version | Text Only | Print | Product List | Glossary Off
Versions: 1 2 3 4 5 6 7 8 9 10 11 12 13 14 15 16 17 18 19 20 21 22 23 24 25 26 27 28 29 30 31 32 33 34 35 36 37 38 39 40 41 42 43 44 45 46 47 48 49 50

000
ASUS44 KMEG 170710
RWRTN
TENNESSEE HOURLY STATE WEATHER ROUNDUP
NATIONAL WEATHER SERVICE MEMPHIS TN
100 AM CST TUE JAN 17 2017

TNZ002-004-019-021-049-052-054-088>092-170800-
WEST TENNESSEE

CITY           SKY/WX    TMP DP  RH WIND       PRES   REMARKS
MEMPHIS INTL   LGT RAIN  66  63  90 SW13G29   29.99S
NWS MEMPHIS      N/A     66 N/A N/A MISG        N/A
JACKSON        CLOUDY    66  32  28 S14G23    29.98S
DYERSBURG      CLOUDY    63  59  88 W17       29.97S
UNION CITY     CLOUDY   N/A N/A N/A SW14      29.94S
PARIS          MOCLDY    59  57  94 SW10      29.97R
HUNTINGDON     CLOUDY    64  61  88 SW12G17   29.97R
$$

TNZ008-025-027-028-033-062-065-066-170800-
NORTH MIDDLE TENNESSEE

CITY           SKY/WX    TMP DP  RH WIND       PRES   REMARKS
NASHVILLE      CLOUDY    66  54  65 S15       30.01F
PORTLAND       MOCLDY    59  55  88 S12       30.00F
CLARKSVILLE    RAIN      60  57  89 S8        29.97S FOG
SMYRNA         CLOUDY    67  55  65 S16G22    30.03F
GALLATIN       CLOUDY    59  55  88 CALM      30.04F
CROSSVILLE     CLOUDY    57  52  83 S14G24    30.12F
$$

TNZ061-075-076-078-094-096-097-170800-
SOUTH MIDDLE TENNESSEE

CITY           SKY/WX    TMP DP  RH WIND       PRES   REMARKS
FAYETTEVILLE   CLOUDY    66  57  72 S20       30.10S
TULLAHOMA      CLOUDY    64  52  63 S13       30.10R
WINCHESTER     CLOUDY    64  54  68 S9        30.11R
MCMINNVILLE    CLOUDY    66  54  63 S13       30.07S
COLUMBIA       CLOUDY    66  64  94 S20       30.02S
SHELBYVILLE    MOCLDY    68  55  64 S20       30.07R
$$

TNZ017-018-042-046-047-170800-
NORTHEAST TENNESSEE

CITY           SKY/WX    TMP DP  RH WIND       PRES   REMARKS
TRI CITIES     CLOUDY    53  48  83 CALM      30.16F
ELIZABETHTON   CLOUDY    54  48  82 VRB5      30.18S
$$

TNZ012-013-036-069-073-074-170800-
CENTRAL EAST TENNESSEE

CITY           SKY/WX    TMP DP  RH WIND       PRES   REMARKS
KNOXVILLE      MOCLDY    52  50  93 E5        30.12F
GATLINBURG     CLEAR     48  48 100 CALM      30.14R
MORRISTOWN     PTCLDY    52  52 100 CALM      30.14S
JACKSBORO      CLOUDY    63  54  72 S17       30.14F
$$

TNZ083-085-099-170800-
SOUTHEAST TENNESSEE

CITY           SKY/WX    TMP DP  RH WIND       PRES   REMARKS
CHATTANOOGA    CLOUDY    59  53  80 S8        30.16F
$$

SKY/WX REPORTED AS FAIR MEANS FEW OR NO CLOUDS BELOW
12 THOUSAND FEET.





USA.gov is the U.S. government's official web portal to all federal, state and local government web resources and services.